Date,Time,Wetness (Wet Dry or Ice),Wind Speed (m/s),Temperature (C),Humidity (%),Pressure (mb),Radiation (W/m^2)
2020-10-11,22:40:00,DRY,1.80,13.73,34.7,777.00,1.4
2020-10-11,22:45:00,DRY,1.45,13.85,34.0,777.00,1.4
2020-10-11,22:50:00,DRY,4.10,13.87,34.0,777.00,1.1
2020-10-11,22:55:00,DRY,1.60,13.95,34.0,777.00,0.8
2020-10-11,23:00:00,DRY,1.27,13.83,34.7,777.00,1.0
2020-10-11,23:05:00,DRY,2.00,13.80,35.0,777.00,0.4
2020-10-11,23:10:00,DRY,3.37,13.80,35.0,777.00,1.0
2020-10-11,23:15:00,DRY,3.55,13.90,35.0,777.00,1.1
2020-10-11,23:20:00,DRY,1.70,13.83,35.0,777.00,1.5
2020-10-11,23:25:00,DRY,3.00,13.80,35.0,777.00,1.5
2020-10-11,23:30:00,DRY,1.93,13.73,34.7,777.00,0.6
2020-10-11,23:35:00,DRY,3.95,13.85,35.0,777.00,1.0
2020-10-11,23:40:00,DRY,3.67,13.87,34.3,777.00,1.6
2020-10-11,23:45:00,DRY,3.60,13.95,34.0,777.00,1.6
2020-10-11,23:50:00,DRY,1.50,13.90,34.3,777.00,0.7
2020-10-11,23:55:00,DRY,3.35,13.75,35.0,777.00,1.0
2020-10-12,00:00:00,DRY,2.47,13.63,35.0,777.00,1.5
2020-10-12,00:05:00,DRY,2.35,13.65,35.0,777.00,1.6
2020-10-12,00:10:00,DRY,2.83,13.50,35.3,777.00,0.9
2020-10-12,00:15:00,DRY,4.10,13.70,35.0,777.00,1.5
2020-10-12,00:20:00,DRY,2.97,13.70,35.0,777.00,0.7
2020-10-12,00:25:00,DRY,2.10,13.60,35.0,777.00,2.5
2020-10-12,00:30:00,DRY,1.23,14.07,34.0,777.00,0.8
2020-10-12,00:35:00,DRY,1.25,14.15,33.0,777.00,1.1
2020-10-12,00:40:00,DRY,2.67,14.10,33.7,777.00,0.5
2020-10-12,00:45:00,DRY,1.60,13.85,34.0,777.00,1.4
2020-10-12,00:50:00,DRY,2.90,14.00,33.7,777.00,1.5
2020-10-12,00:55:00,DRY,2.10,14.30,33.5,777.00,1.9
2020-10-12,01:00:00,DRY,3.17,14.33,33.3,776.67,1.4
2020-10-12,01:05:00,DRY,1.25,13.95,34.5,776.50,1.6
2020-10-12,01:10:00,DRY,2.00,13.97,34.3,776.67,0.9
2020-10-12,01:15:00,DRY,1.45,14.15,34.0,776.50,1.7
2020-10-12,01:20:00,DRY,3.50,14.33,34.0,776.00,1.1
2020-10-12,01:25:00,DRY,4.15,14.30,34.0,776.00,1.4
2020-10-12,01:30:00,DRY,3.97,14.27,34.3,776.67,1.2
2020-10-12,01:35:00,DRY,3.80,14.25,35.0,776.50,0.9
2020-10-12,01:40:00,DRY,2.60,14.30,35.3,776.33,1.3
2020-10-12,01:45:00,DRY,2.50,14.05,36.0,776.50,1.4
2020-10-12,01:50:00,DRY,1.30,14.03,36.3,776.00,1.9
2020-10-12,01:55:00,DRY,1.80,14.00,36.5,776.00,1.6
2020-10-12,02:00:00,DRY,1.90,14.37,36.3,776.00,1.6
2020-10-12,02:05:00,DRY,1.65,14.35,37.0,776.00,1.6
2020-10-12,02:10:00,DRY,1.50,14.07,37.3,776.00,2.6
2020-10-12,02:15:00,DRY,3.20,14.05,38.0,776.00,1.5
2020-10-12,02:20:00,DRY,3.17,14.37,37.3,776.00,1.5
2020-10-12,02:25:00,DRY,4.30,14.40,37.5,776.00,1.2
2020-10-12,02:30:00,DRY,2.03,14.40,37.3,776.00,0.9
2020-10-12,02:35:00,DRY,2.05,14.15,38.0,776.00,1.5
2020-10-12,02:40:00,DRY,1.00,14.23,38.0,776.00,1.5
2020-10-12,02:45:00,DRY,1.45,14.20,38.0,776.00,1.6
2020-10-12,02:50:00,DRY,1.07,14.13,38.7,776.00,1.2
2020-10-12,02:55:00,DRY,1.90,14.05,39.0,776.00,0.2
2020-10-12,03:00:00,DRY,1.50,14.33,38.7,776.00,1.1
2020-10-12,03:05:00,DRY,4.35,14.35,38.5,776.00,1.3
2020-10-12,03:10:00,DRY,1.97,14.47,38.7,776.00,1.4
2020-10-12,03:15:00,DRY,3.20,14.25,39.0,776.00,0.9
2020-10-12,03:20:00,DRY,1.77,14.33,39.0,776.00,0.4
2020-10-12,03:25:00,DRY,1.90,14.30,39.5,776.00,1.5
2020-10-12,03:30:00,DRY,1.93,14.07,40.0,776.00,1.6
2020-10-12,03:35:00,DRY,2.25,14.15,40.0,776.00,0.9
2020-10-12,03:40:00,DRY,2.63,14.10,40.0,776.00,0.6
2020-10-12,03:45:00,DRY,4.65,14.15,40.5,776.00,1.1
2020-10-12,03:50:00,DRY,2.37,14.20,40.7,776.00,1.0
2020-10-12,03:55:00,DRY,2.70,14.30,40.0,776.00,1.7
2020-10-12,04:00:00,DRY,2.47,14.33,40.3,776.00,1.9
2020-10-12,04:05:00,DRY,3.00,14.30,41.0,776.00,1.2
2020-10-12,04:10:00,DRY,1.23,14.20,40.7,776.00,1.6
2020-10-12,04:15:00,DRY,0.90,14.10,41.5,776.00,1.0
2020-10-12,04:20:00,DRY,2.93,14.33,41.0,776.00,1.5
2020-10-12,04:25:00,DRY,2.60,14.65,40.0,776.00,0.9
2020-10-12,04:30:00,DRY,4.10,14.53,40.7,776.00,1.6
2020-10-12,04:35:00,DRY,4.65,14.50,40.5,776.00,1.2
2020-10-12,04:40:00,DRY,3.70,14.40,41.0,776.00,1.1
2020-10-12,04:45:00,DRY,3.45,14.40,41.5,776.00,1.1
2020-10-12,04:50:00,DRY,4.03,14.37,42.0,776.00,1.3
2020-10-12,04:55:00,DRY,3.75,14.85,40.0,776.00,1.2
2020-10-12,05:00:00,DRY,5.03,14.67,40.7,776.00,1.3
2020-10-12,05:05:00,DRY,3.75,14.30,41.5,776.00,1.5
2020-10-12,05:10:00,DRY,2.90,14.43,41.0,776.00,0.6
2020-10-12,05:15:00,DRY,3.15,14.50,41.0,776.00,1.3
2020-10-12,05:20:00,DRY,1.50,14.13,41.7,776.00,1.5
2020-10-12,05:25:00,DRY,2.35,14.10,41.5,776.00,1.8
2020-10-12,05:30:00,DRY,2.40,14.40,41.0,776.00,1.9
2020-10-12,05:35:00,DRY,4.90,14.60,40.0,776.00,1.9
2020-10-12,05:40:00,DRY,2.93,14.57,40.3,776.00,1.1
2020-10-12,05:45:00,DRY,2.75,14.20,41.0,776.00,0.8
2020-10-12,05:50:00,DRY,3.00,14.70,39.7,776.00,1.0
2020-10-12,05:55:00,DRY,2.95,14.55,40.0,776.00,1.5
2020-10-12,06:00:00,DRY,3.53,14.53,40.3,776.00,1.2
2020-10-12,06:05:00,DRY,4.55,14.45,40.5,776.00,1.1
2020-10-12,06:10:00,DRY,2.97,14.67,39.7,776.00,0.8
2020-10-12,06:15:00,DRY,3.25,14.60,40.0,776.00,1.7
2020-10-12,06:20:00,DRY,3.20,14.40,40.7,776.00,0.9
2020-10-12,06:25:00,DRY,3.45,14.35,40.5,776.00,1.2
2020-10-12,06:30:00,DRY,3.43,14.53,40.3,776.00,1.2
2020-10-12,06:35:00,DRY,2.75,14.50,40.5,776.00,1.4
2020-10-12,06:40:00,DRY,2.40,14.40,41.7,776.00,1.9
2020-10-12,06:45:00,DRY,3.60,14.35,41.0,776.00,1.5
2020-10-12,06:50:00,DRY,1.90,14.33,41.3,776.00,1.1
2020-10-12,06:55:00,DRY,3.40,14.35,42.0,776.00,1.6
2020-10-12,07:00:00,DRY,2.30,14.30,41.7,776.00,2.8
2020-10-12,07:05:00,DRY,4.25,14.60,41.0,776.50,5.1
2020-10-12,07:10:00,DRY,1.60,14.43,41.7,776.33,5.6
2020-10-12,07:15:00,DRY,2.35,14.35,42.0,777.00,11.8
2020-10-12,07:20:00,DRY,1.77,14.13,42.0,777.00,23.8
2020-10-12,07:25:00,DRY,2.40,14.40,41.5,776.50,29.6
2020-10-12,07:30:00,DRY,1.77,14.40,41.3,777.00,40.8
2020-10-12,07:35:00,DRY,5.65,14.55,41.0,777.00,44.6
2020-10-12,07:40:00,DRY,3.20,14.67,41.0,777.00,63.5
2020-10-12,07:45:00,DRY,3.25,14.55,41.0,777.00,72.1
2020-10-12,07:50:00,DRY,3.57,14.63,41.3,777.00,86.0
2020-10-12,07:55:00,DRY,3.25,14.65,41.0,777.00,97.5
2020-10-12,08:00:00,DRY,4.50,14.57,41.7,777.00,89.1
2020-10-12,08:05:00,DRY,2.80,14.65,41.5,777.00,114.2
2020-10-12,08:10:00,DRY,4.20,14.67,41.3,777.00,179.2
2020-10-12,08:15:00,DRY,2.65,14.90,41.0,777.00,299.4
2020-10-12,08:20:00,DRY,3.63,14.97,40.7,777.00,333.1
2020-10-12,08:25:00,DRY,5.90,15.00,41.0,777.00,365.7
2020-10-12,08:30:00,DRY,5.17,15.00,40.7,777.00,401.6
2020-10-12,08:35:00,DRY,3.55,15.10,40.0,777.00,428.1
2020-10-12,08:40:00,DRY,1.97,15.27,41.0,777.00,438.4
2020-10-12,08:45:00,DRY,1.65,15.50,41.0,777.00,457.9
2020-10-12,08:50:00,DRY,1.97,15.73,40.0,777.00,468.9
2020-10-12,08:55:00,DRY,2.20,15.65,39.5,777.00,400.6
2020-10-12,09:00:00,DRY,1.40,15.63,39.3,777.00,322.7
2020-10-12,09:05:00,DRY,1.65,15.50,40.5,777.00,297.9
2020-10-12,09:10:00,DRY,2.13,15.50,40.3,777.00,400.8
2020-10-12,09:15:00,DRY,3.35,15.55,40.5,777.00,431.3
2020-10-12,09:20:00,DRY,3.93,15.53,40.7,777.00,504.6
2020-10-12,09:25:00,DRY,4.45,15.65,40.5,777.00,590.0
2020-10-12,09:30:00,DRY,2.87,15.83,40.0,777.00,619.2
2020-10-12,09:35:00,DRY,3.35,16.25,39.5,777.00,616.8
2020-10-12,09:40:00,DRY,3.53,16.03,38.7,777.00,626.7
2020-10-12,09:45:00,DRY,2.00,16.55,38.5,777.00,635.6
2020-10-12,09:50:00,DRY,2.60,16.60,39.0,777.00,650.0
2020-10-12,09:55:00,DRY,1.50,16.90,38.0,777.00,664.5
2020-10-12,10:00:00,DRY,3.27,16.40,38.0,777.00,680.7
2020-10-12,10:05:00,DRY,2.15,16.75,38.0,777.00,695.9
2020-10-12,10:10:00,DRY,1.80,17.10,37.7,777.00,711.7
2020-10-12,10:15:00,DRY,2.80,17.30,36.5,777.00,727.4
2020-10-12,10:20:00,DRY,3.23,17.10,36.3,777.00,744.6
2020-10-12,10:25:00,DRY,4.00,16.90,37.0,777.00,760.5
2020-10-12,10:30:00,DRY,4.53,17.23,36.7,777.00,777.2
2020-10-12,10:35:00,DRY,3.60,17.35,35.5,777.00,792.5
2020-10-12,10:40:00,DRY,1.33,17.43,36.3,777.00,810.1
2020-10-12,10:45:00,DRY,2.40,17.55,36.0,777.00,831.3
2020-10-12,10:50:00,DRY,2.47,17.37,35.3,777.00,854.1
2020-10-12,10:55:00,DRY,3.45,17.40,35.5,777.00,865.1
2020-10-12,11:00:00,DRY,3.53,17.50,35.7,777.00,896.0
2020-10-12,11:05:00,DRY,1.35,17.80,35.5,778.00,936.5
2020-10-12,11:10:00,DRY,2.03,18.37,34.3,777.33,985.4
2020-10-12,11:15:00,DRY,2.95,18.50,34.5,777.00,1008.0
2020-10-12,11:20:00,DRY,4.07,17.93,34.3,777.33,1010.1
2020-10-12,11:25:00,DRY,4.30,17.85,34.5,777.00,1025.3
2020-10-12,11:30:00,DRY,2.67,18.37,35.3,777.33,1069.0
2020-10-12,11:35:00,DRY,2.35,19.15,34.0,777.50,1076.7
2020-10-12,11:40:00,DRY,3.67,19.23,32.7,777.67,1092.8
2020-10-12,11:45:00,DRY,3.75,19.25,33.0,777.50,1084.5
2020-10-12,11:50:00,DRY,2.33,18.77,33.7,777.67,1106.5
2020-10-12,11:55:00,DRY,3.25,19.05,34.0,778.00,1124.2
2020-10-12,12:00:00,DRY,2.43,19.03,33.3,777.67,1138.8
2020-10-12,12:05:00,DRY,3.15,18.50,34.5,777.00,1152.7
2020-10-12,12:10:00,DRY,3.60,18.83,33.0,777.00,1149.4
2020-10-12,12:15:00,DRY,2.50,18.90,33.0,777.00,1141.9
2020-10-12,12:20:00,DRY,2.87,18.77,33.7,777.00,1145.4
2020-10-12,12:25:00,DRY,3.80,18.95,33.0,777.00,1127.4
2020-10-12,12:30:00,DRY,3.03,19.17,32.7,777.00,1111.7
2020-10-12,12:35:00,DRY,2.70,19.05,32.5,777.00,1112.2
2020-10-12,12:40:00,DRY,4.00,18.90,33.3,777.00,1116.1
2020-10-12,12:45:00,DRY,3.35,18.90,33.0,777.00,1141.2
2020-10-12,12:50:00,DRY,4.03,18.73,33.3,777.00,1158.6
2020-10-12,12:55:00,DRY,4.95,19.20,32.5,777.00,1183.3
2020-10-12,13:00:00,DRY,2.10,19.83,32.0,777.00,1186.2
2020-10-12,13:05:00,DRY,3.50,19.90,31.5,777.00,1166.0
2020-10-12,13:10:00,DRY,2.53,19.53,31.0,777.00,1161.4
2020-10-12,13:15:00,DRY,3.05,19.30,31.0,777.00,1209.8
2020-10-12,13:20:00,DRY,4.20,19.03,32.3,777.00,1209.6
2020-10-12,13:25:00,DRY,3.00,19.25,32.0,777.00,1168.0
2020-10-12,13:30:00,DRY,4.70,18.80,31.0,777.00,1123.6
2020-10-12,13:35:00,DRY,3.40,19.50,32.0,777.00,1086.2
2020-10-12,13:40:00,DRY,2.70,19.63,32.0,777.00,1115.1
2020-10-12,13:45:00,DRY,3.10,19.60,31.5,777.00,996.2
2020-10-12,13:50:00,DRY,3.00,19.40,32.0,777.00,1057.8
2020-10-12,13:55:00,DRY,1.95,19.75,33.5,777.00,1012.0
2020-10-12,14:00:00,DRY,2.83,19.33,33.0,777.00,961.7
2020-10-12,14:05:00,DRY,3.20,18.90,32.0,777.00,929.8
2020-10-12,14:10:00,DRY,4.00,18.63,32.3,777.00,917.2
2020-10-12,14:15:00,DRY,2.75,18.80,32.5,777.00,908.8
2020-10-12,14:20:00,DRY,3.00,19.17,33.0,777.00,898.8
2020-10-12,14:25:00,DRY,2.95,18.60,37.0,777.00,892.2
2020-10-12,14:30:00,DRY,3.53,18.80,34.7,777.00,882.1
2020-10-12,14:35:00,DRY,2.45,18.60,38.0,777.00,873.0
2020-10-12,14:40:00,DRY,3.40,18.93,36.3,777.00,862.1
2020-10-12,14:45:00,DRY,3.20,19.20,33.5,777.00,852.2
2020-10-12,14:50:00,DRY,3.67,19.17,33.7,777.00,840.7
2020-10-12,14:55:00,DRY,4.30,18.75,33.5,777.00,829.2
2020-10-12,15:00:00,DRY,5.00,18.67,34.3,777.00,816.0
2020-10-12,15:05:00,DRY,3.45,18.65,34.5,777.00,804.0
2020-10-12,15:10:00,DRY,4.27,18.57,34.7,777.00,764.2
2020-10-12,15:15:00,DRY,3.60,18.40,34.5,777.00,735.5
2020-10-12,15:20:00,DRY,1.83,18.53,35.7,777.00,760.9
2020-10-12,15:25:00,DRY,1.75,18.75,36.0,777.00,752.8
2020-10-12,15:30:00,DRY,2.40,19.07,34.3,777.00,734.0
2020-10-12,15:35:00,DRY,1.65,19.05,34.5,777.00,716.9
2020-10-12,15:40:00,DRY,3.60,19.00,34.0,777.00,702.2
2020-10-12,15:45:00,DRY,2.05,18.40,34.5,777.00,685.5
2020-10-12,15:50:00,DRY,2.67,18.60,33.7,777.00,668.7
2020-10-12,15:55:00,DRY,1.65,18.40,34.5,777.00,651.0
2020-10-12,16:00:00,DRY,2.80,18.43,33.3,777.00,633.3
2020-10-12,16:05:00,DRY,3.50,18.40,33.0,777.00,614.8
2020-10-12,16:10:00,DRY,2.87,18.37,32.3,777.00,596.9
2020-10-12,16:15:00,DRY,4.45,18.20,34.5,777.00,579.0
2020-10-12,16:20:00,DRY,4.33,17.90,35.3,777.00,560.6
2020-10-12,16:25:00,DRY,3.05,18.05,32.5,777.00,543.1
2020-10-12,16:30:00,DRY,2.77,18.00,35.3,777.00,520.6
2020-10-12,16:35:00,DRY,2.90,17.85,35.5,777.00,502.2
2020-10-12,16:40:00,DRY,4.20,17.73,35.3,777.00,388.4
2020-10-12,16:45:00,DRY,3.30,17.65,36.0,777.00,423.4
2020-10-12,16:50:00,DRY,1.80,17.77,34.7,777.00,354.9
2020-10-12,16:55:00,DRY,3.45,17.75,34.0,777.00,300.6
2020-10-12,17:00:00,DRY,2.83,17.50,35.0,777.00,357.7
2020-10-12,17:05:00,DRY,2.65,17.65,35.0,777.00,398.9
2020-10-12,17:10:00,DRY,3.07,17.67,35.0,777.00,373.2
2020-10-12,17:15:00,DRY,1.95,18.00,34.0,777.00,359.6
2020-10-12,17:20:00,DRY,4.73,17.23,34.3,777.00,247.0
2020-10-12,17:25:00,DRY,2.40,17.10,34.5,777.00,182.3
2020-10-12,17:30:00,DRY,2.93,17.17,34.3,777.00,246.2
2020-10-12,17:35:00,DRY,4.35,17.10,35.0,777.00,207.1
2020-10-12,17:40:00,DRY,4.07,16.90,34.3,777.00,163.0
2020-10-12,17:45:00,DRY,2.90,16.90,33.5,777.00,185.9
2020-10-12,17:50:00,DRY,4.93,16.73,34.7,777.00,168.2
2020-10-12,17:55:00,DRY,2.20,16.60,33.5,777.00,146.4
2020-10-12,18:00:00,DRY,3.10,16.63,33.0,777.00,122.9
2020-10-12,18:05:00,DRY,2.65,16.55,33.5,777.00,95.7
2020-10-12,18:10:00,DRY,2.33,16.60,31.7,777.00,71.9
2020-10-12,18:15:00,DRY,3.10,16.35,33.5,777.00,45.0
2020-10-12,18:20:00,DRY,3.00,16.27,33.3,777.00,39.0
2020-10-12,18:25:00,DRY,3.90,16.20,32.5,777.00,32.6
2020-10-12,18:30:00,DRY,3.23,16.10,32.3,777.00,25.0
2020-10-12,18:35:00,DRY,2.35,16.15,31.5,777.00,17.9
2020-10-12,18:40:00,DRY,2.37,16.07,32.0,777.00,10.8
2020-10-12,18:45:00,DRY,2.55,16.05,30.5,777.00,5.8
2020-10-12,18:50:00,DRY,3.27,15.93,31.0,777.00,3.4
2020-10-12,18:55:00,DRY,1.25,15.85,30.5,777.00,2.2
2020-10-12,19:00:00,DRY,3.20,15.93,31.0,777.00,1.5
2020-10-12,19:05:00,DRY,2.50,15.95,30.0,778.00,1.4
2020-10-12,19:10:00,DRY,3.47,15.80,30.3,777.00,1.4
2020-10-12,19:15:00,DRY,3.50,15.90,30.0,777.00,0.8
2020-10-12,19:20:00,DRY,4.23,15.87,30.3,777.33,0.8
2020-10-12,19:25:00,DRY,3.60,15.85,30.0,778.00,1.9
2020-10-12,19:30:00,DRY,3.07,16.00,29.7,778.00,1.4
2020-10-12,19:35:00,DRY,2.05,15.80,30.0,778.00,0.9
2020-10-12,19:40:00,DRY,0.67,15.77,30.0,778.00,1.6
2020-10-12,19:45:00,DRY,1.60,15.95,29.0,778.00,1.8
2020-10-12,19:50:00,DRY,0.83,15.87,29.0,778.00,1.0
2020-10-12,19:55:00,DRY,0.70,15.75,30.0,778.00,1.0
2020-10-12,20:00:00,DRY,0.53,15.77,30.0,778.00,1.3
2020-10-12,20:05:00,DRY,1.15,15.85,29.5,778.00,0.7
2020-10-12,20:10:00,DRY,2.30,15.93,29.7,778.00,1.0
2020-10-12,20:15:00,DRY,0.80,15.90,29.5,778.00,1.1
2020-10-12,20:20:00,DRY,0.87,15.87,30.0,778.00,0.7
2020-10-12,20:25:00,DRY,0.80,15.95,29.5,778.00,0.4
2020-10-12,20:30:00,DRY,2.20,15.83,30.0,778.00,1.1
2020-10-12,20:35:00,DRY,1.50,15.60,30.0,778.00,1.2
2020-10-12,20:40:00,DRY,1.27,15.57,30.3,778.00,1.3
2020-10-12,20:45:00,DRY,2.80,15.60,30.5,778.00,0.8
2020-10-12,20:50:00,DRY,2.43,15.83,30.0,778.00,1.5
2020-10-12,20:55:00,DRY,1.40,15.70,30.0,778.00,1.3
2020-10-12,21:00:00,DRY,1.47,15.80,30.0,778.00,1.1
2020-10-12,21:05:00,DRY,2.15,15.60,30.5,778.00,1.6
2020-10-12,21:10:00,DRY,1.70,15.67,30.7,778.00,1.1
2020-10-12,21:15:00,DRY,1.20,15.75,30.0,778.00,1.1
2020-10-12,21:20:00,DRY,1.03,15.87,30.0,778.00,0.8
2020-10-12,21:25:00,DRY,1.40,15.50,31.0,778.00,0.5
2020-10-12,21:30:00,DRY,1.60,15.53,31.3,778.00,1.9
2020-10-12,21:35:00,DRY,0.90,15.90,30.0,778.00,0.8
2020-10-12,21:40:00,DRY,0.53,15.97,30.0,778.00,0.7
2020-10-12,21:45:00,DRY,0.80,15.80,31.0,778.00,1.1
2020-10-12,21:50:00,DRY,2.67,15.83,30.7,778.33,0.9
2020-10-12,21:55:00,DRY,1.25,15.75,31.0,778.00,1.4
2020-10-12,22:00:00,DRY,1.10,15.80,31.0,778.33,1.7
2020-10-12,22:05:00,DRY,0.95,15.75,31.0,778.00,1.0
2020-10-12,22:10:00,DRY,1.87,15.77,31.3,778.33,1.1
2020-10-12,22:15:00,DRY,3.20,15.65,31.0,778.00,1.4
2020-10-12,22:20:00,DRY,0.77,15.83,31.0,778.33,1.5
2020-10-12,22:25:00,DRY,0.90,15.65,31.0,778.00,1.6
2020-10-12,22:30:00,DRY,1.33,15.60,32.0,778.00,0.6
2020-10-12,22:35:00,DRY,0.95,15.55,32.0,778.50,0.9
2020-10-12,22:40:00,DRY,0.77,15.80,31.0,778.00,1.2
2020-10-12,22:45:00,DRY,1.50,15.70,31.0,778.00,1.9
2020-10-12,22:50:00,DRY,2.10,15.87,31.0,778.00,1.5
2020-10-12,22:55:00,DRY,2.10,15.95,31.0,778.00,0.6
2020-10-12,23:00:00,DRY,0.67,15.87,31.0,778.00,0.8
2020-10-12,23:05:00,DRY,1.00,16.10,31.0,778.00,1.6
2020-10-12,23:10:00,DRY,1.80,16.20,31.7,778.00,1.8
2020-10-12,23:15:00,DRY,1.15,16.30,33.0,778.00,1.8
2020-10-12,23:20:00,DRY,0.97,15.87,32.7,778.00,1.6
2020-10-12,23:25:00,DRY,1.25,15.65,33.0,778.00,1.1
2020-10-12,23:30:00,DRY,1.10,15.47,34.0,778.00,2.0
2020-10-12,23:35:00,DRY,1.55,15.70,33.5,778.00,1.4
2020-10-12,23:40:00,DRY,1.07,15.80,33.0,778.00,1.5
2020-10-12,23:45:00,DRY,1.15,15.70,33.0,778.00,1.1
2020-10-12,23:50:00,DRY,0.67,15.43,33.3,778.00,1.4
2020-10-12,23:55:00,DRY,0.45,15.60,33.0,778.00,1.1
2020-10-13,00:00:00,DRY,1.80,15.70,33.0,778.00,0.9
2020-10-13,00:05:00,DRY,1.45,15.60,33.0,778.00,1.2
2020-10-13,00:10:00,DRY,0.67,15.70,33.0,778.00,1.5
2020-10-13,00:15:00,DRY,1.35,15.85,33.0,778.00,0.8
2020-10-13,00:20:00,DRY,1.20,15.77,33.7,778.00,1.6
2020-10-13,00:25:00,DRY,1.75,15.75,33.5,778.00,1.4
2020-10-13,00:30:00,DRY,1.60,15.60,34.0,778.00,0.6
2020-10-13,00:35:00,DRY,1.55,15.40,35.0,778.00,2.0
2020-10-13,00:40:00,DRY,1.43,15.50,34.7,778.00,1.4
2020-10-13,00:45:00,DRY,2.15,15.70,34.0,778.00,1.9
2020-10-13,00:50:00,DRY,1.23,15.60,34.7,778.00,0.9
2020-10-13,00:55:00,DRY,0.95,15.75,34.0,778.00,1.3
2020-10-13,01:00:00,DRY,1.17,15.70,34.0,778.00,1.2
2020-10-13,01:05:00,DRY,0.90,15.50,35.0,778.00,1.3
2020-10-13,01:10:00,DRY,1.73,15.50,35.0,778.00,1.4
2020-10-13,01:15:00,DRY,1.30,15.65,35.0,778.00,1.6
2020-10-13,01:20:00,DRY,1.50,15.73,34.3,777.67,1.3
2020-10-13,01:25:00,DRY,2.30,16.15,34.0,777.00,1.0
2020-10-13,01:30:00,DRY,1.33,15.90,34.0,777.00,0.7
2020-10-13,01:35:00,DRY,1.35,15.75,35.0,777.00,1.4
2020-10-13,01:40:00,DRY,2.17,15.53,35.3,777.00,1.5
2020-10-13,01:45:00,DRY,2.30,15.60,34.5,777.00,2.1
2020-10-13,01:50:00,DRY,1.53,15.60,33.7,777.00,1.1
2020-10-13,01:55:00,DRY,1.65,15.50,35.0,777.00,1.2
2020-10-13,02:00:00,DRY,0.93,15.73,33.3,777.00,1.5
2020-10-13,02:05:00,DRY,1.15,15.85,33.0,777.00,1.9
2020-10-13,02:10:00,DRY,0.73,15.83,33.0,777.00,1.5
2020-10-13,02:15:00,DRY,0.90,15.85,33.5,777.00,1.2
2020-10-13,02:20:00,DRY,0.97,15.57,34.3,777.00,1.4
2020-10-13,02:25:00,DRY,1.20,15.75,34.5,777.00,1.4
2020-10-13,02:30:00,DRY,0.97,15.83,34.3,777.00,1.5
2020-10-13,02:35:00,DRY,1.55,15.90,33.0,777.00,1.2
2020-10-13,02:40:00,DRY,2.13,16.03,33.7,777.00,1.1
2020-10-13,02:45:00,DRY,1.45,15.80,34.5,777.00,1.5
2020-10-13,02:50:00,DRY,0.87,15.93,33.3,777.00,1.2
2020-10-13,02:55:00,DRY,1.00,15.85,35.5,777.00,1.5
2020-10-13,03:00:00,DRY,1.00,15.53,35.7,777.00,0.8
2020-10-13,03:05:00,DRY,2.35,15.35,36.0,777.00,1.6
2020-10-13,03:10:00,DRY,2.10,15.50,35.7,777.00,1.0
2020-10-13,03:15:00,DRY,1.25,15.15,37.0,777.00,1.7
2020-10-13,03:20:00,DRY,0.53,15.37,36.3,777.00,1.2
2020-10-13,03:25:00,DRY,0.95,14.90,37.5,777.00,3.1
2020-10-13,03:30:00,DRY,0.50,14.57,37.7,777.00,1.4
2020-10-13,03:35:00,DRY,1.40,14.50,37.5,777.00,1.6
2020-10-13,03:40:00,DRY,0.83,14.33,37.0,777.00,2.1
2020-10-13,03:45:00,DRY,0.55,14.35,37.5,777.00,0.9
2020-10-13,03:50:00,DRY,1.07,14.70,37.0,777.00,1.4
2020-10-13,03:55:00,DRY,1.55,14.95,37.0,777.00,0.3
2020-10-13,04:00:00,DRY,1.53,14.83,37.3,777.00,1.3
2020-10-13,04:05:00,DRY,1.35,14.95,37.5,777.00,0.8
2020-10-13,04:10:00,DRY,2.10,15.10,37.3,777.00,1.4
2020-10-13,04:15:00,DRY,0.95,15.05,38.0,777.00,1.3
2020-10-13,04:20:00,DRY,1.13,14.90,38.0,777.00,1.0
2020-10-13,04:25:00,DRY,1.70,14.80,38.0,777.00,1.0
2020-10-13,04:30:00,DRY,0.50,14.83,38.0,777.00,1.3
2020-10-13,04:35:00,DRY,1.25,14.90,38.0,777.00,1.1
2020-10-13,04:40:00,DRY,1.03,15.03,38.0,777.00,0.8
2020-10-13,04:45:00,DRY,0.60,15.05,37.0,777.00,0.9
2020-10-13,04:50:00,DRY,1.30,14.93,37.0,777.00,1.4
2020-10-13,04:55:00,DRY,1.15,14.75,37.0,777.00,1.4
2020-10-13,05:00:00,DRY,0.87,14.83,36.3,777.00,1.0
2020-10-13,05:05:00,DRY,0.60,14.80,36.0,777.00,1.0
2020-10-13,05:10:00,DRY,1.07,14.90,35.3,777.00,0.8
2020-10-13,05:15:00,DRY,1.50,14.95,35.0,777.00,1.2
2020-10-13,05:20:00,DRY,1.97,15.07,35.7,777.00,1.2
2020-10-13,05:25:00,DRY,0.80,15.05,36.0,777.00,0.9
2020-10-13,05:30:00,DRY,1.10,15.07,35.3,777.00,2.8
2020-10-13,05:35:00,DRY,0.75,14.80,35.5,777.00,1.7
2020-10-13,05:40:00,DRY,1.87,14.60,35.7,777.00,1.5
2020-10-13,05:45:00,DRY,2.25,14.85,35.0,777.00,1.9
2020-10-13,05:50:00,DRY,0.97,14.73,35.0,777.00,0.9
2020-10-13,05:55:00,DRY,1.60,14.90,35.0,777.00,0.8
2020-10-13,06:00:00,DRY,1.37,15.07,34.0,777.00,1.6
2020-10-13,06:05:00,DRY,1.80,14.65,35.0,777.00,0.5
2020-10-13,06:10:00,DRY,0.97,14.33,36.0,777.00,1.7
2020-10-13,06:15:00,DRY,1.55,14.35,36.0,777.00,0.7
2020-10-13,06:20:00,DRY,2.57,14.53,35.7,777.00,1.0
2020-10-13,06:25:00,DRY,2.65,14.70,35.0,777.00,0.6
2020-10-13,06:30:00,DRY,1.00,14.80,35.0,777.00,1.1
2020-10-13,06:35:00,DRY,2.35,14.80,35.0,777.00,0.5
2020-10-13,06:40:00,DRY,1.60,14.63,35.3,777.00,0.9
2020-10-13,06:45:00,DRY,2.60,14.55,36.0,777.00,1.1
2020-10-13,06:50:00,DRY,2.03,14.77,35.0,777.00,1.0
2020-10-13,06:55:00,DRY,2.10,14.85,35.0,777.00,0.8
2020-10-13,07:00:00,DRY,2.40,14.93,35.3,777.00,2.7
2020-10-13,07:05:00,DRY,3.45,14.85,35.0,777.00,5.3
2020-10-13,07:10:00,DRY,2.97,15.10,34.7,777.00,5.1
2020-10-13,07:15:00,DRY,1.85,15.30,34.0,777.00,8.2
2020-10-13,07:20:00,DRY,1.67,15.20,34.0,777.00,12.9
2020-10-13,07:25:00,DRY,2.90,15.15,34.0,777.50,20.1
2020-10-13,07:30:00,DRY,2.53,15.13,33.7,777.00,34.7
2020-10-13,07:35:00,DRY,2.05,15.25,33.5,778.00,60.8
2020-10-13,07:40:00,DRY,1.33,15.23,34.0,777.00,77.3
2020-10-13,07:45:00,DRY,1.90,15.20,34.0,777.00,87.7
2020-10-13,07:50:00,DRY,3.00,15.20,34.3,777.67,110.1
2020-10-13,07:55:00,DRY,2.10,15.25,34.0,778.00,149.1
2020-10-13,08:00:00,DRY,1.70,15.33,34.3,777.67,182.8
2020-10-13,08:05:00,DRY,2.15,15.45,34.0,778.00,186.7
2020-10-13,08:10:00,DRY,1.50,15.50,35.3,778.00,199.7
2020-10-13,08:15:00,DRY,1.65,15.50,35.0,778.00,210.6
2020-10-13,08:20:00,DRY,1.70,15.43,35.3,778.00,96.9
2020-10-13,08:25:00,DRY,2.30,15.15,36.0,778.00,74.1
2020-10-13,08:30:00,DRY,2.27,15.43,35.3,778.00,72.9
2020-10-13,08:35:00,DRY,1.20,15.40,35.5,778.00,92.1
2020-10-13,08:40:00,DRY,1.97,15.57,33.7,778.00,127.8
2020-10-13,08:45:00,DRY,1.50,15.75,34.0,778.00,201.1
2020-10-13,08:50:00,DRY,2.07,15.80,34.0,778.00,308.8
2020-10-13,08:55:00,DRY,1.15,16.05,33.0,778.00,393.4
2020-10-13,09:00:00,DRY,2.90,16.37,33.0,778.00,518.7
2020-10-13,09:05:00,DRY,1.20,16.55,33.0,778.00,562.8
2020-10-13,09:10:00,DRY,1.87,16.53,33.7,778.00,566.6
2020-10-13,09:15:00,DRY,1.60,16.65,33.5,778.00,548.4
2020-10-13,09:20:00,DRY,1.43,16.60,34.0,778.00,555.1
2020-10-13,09:25:00,DRY,2.20,16.75,33.5,778.00,566.9
2020-10-13,09:30:00,DRY,1.13,16.67,33.3,778.00,414.7
2020-10-13,09:35:00,DRY,2.05,16.95,32.5,778.00,378.9
2020-10-13,09:40:00,DRY,2.33,16.40,32.0,778.00,531.9
2020-10-13,09:45:00,DRY,2.25,16.65,32.5,778.00,670.8
2020-10-13,09:50:00,DRY,3.43,16.37,31.7,778.00,355.0
2020-10-13,09:55:00,DRY,3.45,16.20,33.0,778.00,177.3
2020-10-13,10:00:00,DRY,2.53,16.17,32.7,778.00,569.6
2020-10-13,10:05:00,WET,2.10,16.50,33.0,778.00,866.1
2020-10-13,10:10:00,DRY,2.10,16.90,33.0,778.00,901.3
2020-10-13,10:15:00,DRY,1.95,17.25,33.0,778.00,846.7
2020-10-13,10:20:00,DRY,2.20,17.30,31.7,778.00,826.8
2020-10-13,10:25:00,DRY,3.25,17.30,32.5,778.00,833.4
2020-10-13,10:30:00,DRY,3.23,17.30,32.0,778.00,825.9
2020-10-13,10:35:00,DRY,2.70,16.85,32.0,778.00,353.4
2020-10-13,10:40:00,DRY,2.17,16.93,32.3,778.00,737.9
2020-10-13,10:45:00,DRY,2.40,16.95,33.0,778.00,300.1
2020-10-13,10:50:00,DRY,1.90,16.77,32.3,778.00,196.3
2020-10-13,10:55:00,DRY,1.40,16.25,33.5,778.00,248.8
2020-10-13,11:00:00,DRY,2.70,16.10,33.7,778.00,702.2
2020-10-13,11:05:00,DRY,2.25,16.35,33.5,778.00,860.2
2020-10-13,11:10:00,DRY,2.00,16.27,33.7,778.00,838.0
2020-10-13,11:15:00,DRY,4.60,16.60,34.0,778.00,956.7
2020-10-13,11:20:00,DRY,6.10,16.53,34.7,778.00,731.8
2020-10-13,11:25:00,DRY,4.70,16.45,34.0,778.00,638.2
2020-10-13,11:30:00,DRY,4.43,16.43,34.0,778.00,845.4
2020-10-13,11:35:00,DRY,5.05,16.75,33.5,778.00,721.2
2020-10-13,11:40:00,DRY,3.53,16.67,33.7,778.00,894.3
2020-10-13,11:45:00,DRY,3.45,16.35,33.5,778.00,509.4
2020-10-13,11:50:00,DRY,3.50,16.77,33.0,778.00,796.2
2020-10-13,11:55:00,DRY,5.75,17.00,32.0,778.00,1026.8
2020-10-13,12:00:00,DRY,4.73,17.07,32.0,778.00,1029.1
2020-10-13,12:05:00,DRY,3.20,17.10,32.0,778.00,999.0
2020-10-13,12:10:00,DRY,4.90,17.43,32.3,778.00,1026.3
2020-10-13,12:15:00,DRY,4.05,17.35,30.5,778.00,1023.4
2020-10-13,12:20:00,DRY,2.85,17.20,31.0,778.00,681.8
2020-10-13,12:25:00,DRY,2.30,17.30,31.5,778.00,1015.0
2020-10-13,12:30:00,DRY,2.70,17.37,31.3,778.00,1029.0
2020-10-13,12:35:00,DRY,2.30,17.30,32.0,778.00,1038.9
2020-10-13,12:40:00,DRY,3.40,17.67,32.0,778.00,1048.4
2020-10-13,12:45:00,DRY,2.20,18.00,33.0,778.00,1111.8
2020-10-13,12:50:00,DRY,3.70,18.27,31.3,778.00,1071.7
2020-10-13,12:55:00,DRY,3.65,18.20,32.0,778.00,504.8